Location: Pian di Sc�
(43.6333°N, 11.5500°E)
Time: 17:45:34
(UTC+00:00)

Cosmos 2237 Rocket - Pass Details

Date: 07 August 2020
Orbit: 836 x 849 km, 71.0° (Epoch: 17 September)

Event Time Altitude Azimuth Distance (km) Brightness Sun altitude
Rises 02:36:13 0° 313° (NW) 3,403 5.3 -15.1°
Reaches altitude 10° 02:41:04 10° 276° (W) 2,457 4.2 -14.4°
Enters shadow 02:41:15 10° 274° (W) 2,444 4.2 -14.4°
